Starlink 33817

operational
NORAD ID: 63583 Int'l Des: 2025-076 Owner: SPXS Country: US Constellation: starlink
LEOCIRCULAR

Über Starlink 33817

Beschreibung wird geladen...

Live-Position

3D-Globus wird geladen...

Nächste Überflüge

Höhenverlauf

Altitude vs Time

uPlot chart will show altitude changes over time

Zweizeiliger Elementsatz

1 63583U 25076Q 25258.38378979 .00040977 00000-0 14886-2 0 9997
2 63583 43.0038 231.3820 0001534 275.4017 84.6660 15.27617668 25010
Epoch: 15. Sept. 2025 • Age: 15 hours

Aktueller Status

Höhe 487.4 km
Geschwindigkeit 7.62 km/s
Subsatellitenpunkt -21.71°S, 73.85°E
Startdatum 14. Apr. 2025
Alter 0.4 years
Typ internet

Technische Details

Klassifizierung Payload
Masse 575.00 kg
Trockenmasse 530.00 kg
Gesamtmasse 575.00 kg
Länge 0.30 m
Durchmesser 4.10 m
Spannweite 29.00 m
Form Box + pan
Hersteller SPXS
Bus-Typ Starlink V2MO
Phasenstatus In Orbit
Besitzer/Staat SPXS/US

Große Konstellationen

Loading constellations...